User: anonymous   Login
Location: Les Ponts-de-C�
(47.4170°N, 0.5170°W)
Time: 13:04:01
(UTC+02:00)
Language:

ISS - Orbit

View from above orbital plane
View from above orbital plane
View from above satellite
View from above satellite

Ground track
Ground track

The orbit data is extracted from the following two-line orbital elements,

1 25544U 98067A   18265.50248361  .00016717  00000-0  10270-3 0  9019
2 25544  51.6365 253.7509 0004301 192.3770 167.7277 15.53763701 13645
Epoch (UTC): 22 September 2018 12:03:34
Eccentricity: 0.0004301
inclination: 51.6365°
perigee height: 403 km
apogee height: 408 km
right ascension of ascending node: 253.7509°
argument of perigee: 192.3770°
revolutions per day: 15.53763701
mean anomaly at epoch: 167.7277°
orbit number at epoch: 1364

The dashed part of the orbit path shows where the satellite is in the earth's shadow,  

DLR